Wetbulb
73.07 74.82 75.05 75.08 76.70 77.47 78.21 78.68 78.00 77.94 77.91 78.03 77.60 77.53 77.61 77.41 77.23 77.59 77.08 76.94 77.23 77.32 77.19 77.10 76.98 77.19 77.55 77.03 76.97 76.18 76.23 75.98 75.65 76.09 76.35 76.36 75.87 75.45 74.54 73.90 74.43 73.99 75.92
73.26 75.69 76.32 76.41 77.24 77.92 78.28 77.96 77.99 77.95 78.01 77.77 77.50 77.46 77.51 77.60 77.75 77.56 77.16 77.01 77.23 77.29 77.18 76.65 76.37 75.98 76.26 76.29 76.43 76.23 75.65 75.73 76.23 76.15 76.26 76.07 76.47 76.09 74.57 73.62 75.20 75.51 75.51
75.08 76.73 76.41 76.89 77.96 77.49 77.99 78.03 77.96 77.92 77.76 77.85 77.55 77.34 77.24 77.58 77.20 77.69 77.19 76.29 76.93 77.31 76.98 76.62 76.34 76.26 75.82 75.84 75.71 75.82 75.82 75.54 74.76 74.94 75.53 76.41 76.41 76.62 75.67 74.38 74.70 75.53 74.32
75.84 76.10 76.60 77.72 78.75 78.21 78.07 78.04 78.00 77.93 77.64 77.39 77.04 76.72 76.96 77.56 77.62 76.84 76.73 76.79 77.24 76.84 76.84 76.23 76.01 75.87 75.43 75.07 74.93 74.54 74.51 74.39 75.48 76.26 76.83 74.45 75.32 77.06 76.68 75.72 74.76 75.50 74.24
73.87 75.21 77.05 77.73 77.83 77.97 78.23 78.16 77.71 77.47 77.31 77.44 77.07 77.06 77.40 77.25 76.60 76.43 77.03 76.57 76.23 76.73 76.40 76.01 75.54 75.37 74.90 74.68 74.65 74.51 74.42 75.23 75.98 75.87 75.16 76.49 75.51 76.13 76.69 76.45 74.87 74.10 73.55
73.42 76.05 76.66 77.20 77.82 77.49 78.01 77.92 77.40 76.77 76.71 76.04 76.57 77.22 77.57 76.79 75.93 76.51 76.40 76.40 76.32 76.40 76.07 75.42 74.85 74.26 74.20 74.20 74.37 74.69 75.11 75.56 75.98 75.13 76.45 75.65 76.99 76.29 75.40 74.62 74.17 74.74 73.41
74.03 75.64 76.68 78.22 77.72 77.48 77.69 78.23 77.65 76.16 77.33 76.38 75.40 75.84 76.40 77.21 76.70 75.84 76.51 76.59 76.26 75.68 75.04 74.81 74.77 74.61 74.53 74.69 75.29 75.98 76.50 76.92 77.09 76.29 76.04 77.54 76.99 77.02 76.30 75.15 74.49 75.00 74.04
75.17 75.25 76.62 77.71 77.45 77.82 77.90 76.72 75.15 74.87 75.86 76.20 75.93 76.01 76.53 76.45 76.12 76.26 76.23 75.87 75.34 74.59 74.31 74.36 74.64 75.42 76.07 76.51 76.79 76.94 77.11 77.33 76.23 74.18 75.41 75.58 76.04 76.14 76.13 76.18 75.01 75.12 75.43
74.74 74.93 76.04 77.06 77.89 78.16 77.16 76.17 75.81 75.34 75.40 75.90 76.23 76.41 76.47 76.42 76.15 75.76 75.54 75.04 74.77 74.94 75.17 75.48 75.79 76.01 76.37 76.46 76.40 76.68 77.28 77.93 76.20 73.35 73.72 76.51 76.15 75.62 76.36 76.45 75.66 75.39 75.69
74.86 74.49 74.95 77.15 77.18 76.67 75.45 75.73 77.00 77.87 77.36 77.12 76.94 77.00 77.06 76.48 76.29 75.98 75.46 75.51 75.22 75.70 75.74 75.82 76.03 76.60 76.67 77.01 77.10 77.29 78.29 78.75 76.42 75.45 76.19 76.11 76.31 75.81 76.38 76.15 75.97 75.58 75.83
73.76 75.96 75.86 75.98 75.47 75.11 74.83 75.79 77.00 77.01 76.48 76.18 75.88 75.95 76.20 77.03 77.39 76.59 77.17 76.39 76.68 76.70 76.44 76.79 76.84 77.82 78.54 78.81 78.75 78.74 78.75 76.26 73.68 73.55 76.16 76.93 76.54 74.96 74.98 76.24 76.13 75.42 75.49
72.50 74.34 75.84 75.04 75.14 74.36 73.20 75.57 76.37 76.39 76.49 77.16 76.92 78.84 77.81 78.40 76.75 75.60 77.30 77.47 77.75 77.47 77.48 77.90 78.41 79.04 79.14 75.73 77.22 78.85 76.16 73.90 73.66 73.73 75.54 77.25 76.32 75.65 75.23 75.14 75.60 75.42 75.23
73.27 73.44 74.39 75.10 75.79 74.42 74.79 76.41 76.13 76.68 76.97 77.68 78.64 78.91 77.92 78.41 77.68 77.60 77.80 77.61 78.39 78.83 77.00 74.94 77.58 76.23 74.81 73.62 72.88 73.25 73.42 73.19 72.92 73.10 76.32 76.53 75.54 75.57 76.31 75.88 76.01 75.95 75.68
72.59 72.84 74.16 75.07 75.76 75.61 76.09 76.26 75.97 75.37 76.50 76.14 77.68 78.89 77.88 76.88 76.81 79.13 76.02 76.21 79.53 75.70 77.29 76.54 75.49 76.34 74.89 74.17 73.85 73.66 72.37 72.79 72.68 73.18 75.48 75.87 74.56 74.42 76.46 76.43 76.43 76.23 76.14
72.00 73.23 74.21 75.15 76.33 77.34 78.11 77.04 76.68 76.76 76.29 77.96 77.37 78.38 77.44 76.48 76.55 78.25 76.80 76.02 76.82 78.55 77.04 76.88 78.58 76.53 76.46 75.79 75.36 74.97 73.48 72.64 73.68 73.22 73.53 76.51 74.64 74.96 75.90 76.85 77.01 77.02 76.93
72.47 73.85 74.84 75.18 76.67 77.83 78.55 79.02 77.57 76.87 78.23 76.48 76.44 77.93 78.39 78.08 77.39 76.47 76.86 77.01 78.36 76.48 76.29 77.04 78.33 77.44 77.50 75.83 75.25 75.21 74.14 73.22 73.15 73.81 73.49 74.73 75.21 73.93 73.77 74.38 74.98 75.67 76.28
72.68 74.75 74.98 75.63 76.36 77.59 78.83 78.32 77.20 76.39 75.88 75.79 76.25 78.36 78.17 78.39 78.61 79.01 76.52 77.65 77.70 78.29 79.39 78.52 78.10 77.46 75.97 75.36 75.33 74.89 73.94 73.35 72.98 73.94 73.89 73.60 74.40 75.48 73.87 72.80 72.58 73.21 73.96
73.09 74.77 75.50 75.09 75.74 77.05 77.91 77.97 76.58 76.04 75.79 75.55 75.95 76.99 77.87 78.13 78.26 78.42 76.17 76.29 77.62 78.73 77.08 76.16 76.59 75.74 75.39 75.11 74.72 73.85 73.85 73.42 73.49 73.31 72.79 72.86 72.43 72.46 71.46 71.79 71.08 71.14 71.22
73.33 74.85 75.03 75.26 75.18 75.98 77.63 77.68 77.46 78.06 76.83 75.97 76.19 76.11 78.80 77.72 77.66 77.66 75.86 76.92 78.69 76.59 76.56 75.80 76.46 76.90 74.58 74.47 72.89 72.02 72.88 72.54 72.68 72.09 72.97 72.89 72.84 71.74 71.29 70.86 70.48 71.21 70.10
73.35 74.73 75.25 75.04 77.20 77.34 77.00 77.72 76.56 76.55 76.74 76.57 76.30 76.08 78.93 77.50 77.84 77.71 76.32 77.17 78.14 76.00 75.54 77.19 77.42 76.87 76.00 74.42 72.74 71.75 71.70 71.86 72.98 72.85 72.71 72.47 72.19 71.14 71.21 71.70 70.13 70.00 70.16
73.44 74.29 76.05 75.50 78.59 76.50 74.94 74.89 75.09 74.65 75.73 75.66 76.21 77.41 78.37 77.71 77.84 78.60 76.29 76.85 78.46 77.74 77.53 77.95 77.06 77.33 74.82 75.33 71.66 70.18 71.43 72.28 72.21 72.36 72.65 72.50 71.26 70.87 70.07 69.09 68.59 68.03 68.46
72.91 74.31 75.97 76.83 78.58 77.61 75.78 76.82 76.34 76.09 75.78 75.93 76.21 78.62 78.66 78.33 78.28 78.09 79.31 78.31 78.91 76.48 79.19 77.65 77.74 74.83 74.82 73.70 69.76 68.76 66.57 69.05 70.89 71.68 72.33 72.15 70.39 70.53 70.55 70.97 69.78 69.35 69.08
72.15 73.96 76.38 77.86 78.69 78.58 78.62 77.08 76.75 76.87 77.16 76.04 76.27 76.93 78.25 78.99 79.08 80.17 79.79 79.15 79.96 79.28 75.70 78.08 77.54 76.98 73.91 73.89 72.81 69.01 66.03 65.03 68.41 71.38 72.62 72.23 72.66 71.27 71.64 71.89 70.91 69.24 69.56
72.34 73.70 76.89 77.69 78.97 79.27 80.19 77.22 77.69 74.35 73.80 75.37 76.80 76.90 77.47 79.12 78.91 78.98 80.54 79.48 80.06 77.54 80.12 78.23 77.59 76.98 75.59 72.34 72.81 71.24 73.04 71.21 67.00 66.43 70.71 73.11 72.37 71.51 69.23 71.47 70.20 69.44 69.27
73.76 73.30 74.86 78.33 79.14 79.88 79.92 79.60 77.59 76.95 76.00 76.21 76.17 80.44 81.32 80.64 79.27 78.66 79.18 79.00 79.31 77.59 78.34 79.95 78.29 77.97 75.09 72.78 70.29 70.41 71.93 71.90 73.01 69.56 67.24 68.95 72.34 69.79 71.62 70.40 69.01 68.17 69.71
74.58 74.68 75.12 78.01 79.34 79.68 80.32 79.75 80.04 79.55 77.78 76.18 76.92 75.88 75.98 76.76 77.82 79.67 78.64 78.66 79.47 79.34 79.08 79.21 78.86 77.36 76.99 73.59 72.04 70.67 70.44 70.34 71.04 69.70 67.76 69.08 69.34 70.61 71.43 70.56 69.88 67.96 69.06
MSLP
1015.03 1014.54 1014.58 1014.60 1014.72 1014.61 1014.72 1014.84 1015.04 1015.11 1015.26 1015.28 1015.34 1015.54 1015.64 1015.70 1015.80 1015.75 1015.90 1015.85 1015.92 1016.00 1016.04 1016.16 1016.07 1016.12 1016.10 1016.18 1016.20 1016.28 1016.30 1016.27 1016.32 1016.34 1016.32 1016.30 1016.46 1016.61 1016.65 1016.65 1016.75 1016.46 1016.81
1014.90 1014.62 1014.88 1015.04 1014.98 1014.89 1014.91 1015.08 1015.27 1015.35 1015.50 1015.53 1015.61 1015.80 1015.84 1015.82 1015.84 1015.98 1016.09 1016.08 1016.12 1016.19 1016.26 1016.30 1016.40 1016.47 1016.47 1016.45 1016.42 1016.39 1016.40 1016.43 1016.36 1016.27 1016.20 1016.38 1016.40 1016.58 1016.71 1016.77 1016.89 1016.78 1016.88
1014.03 1014.03 1014.84 1015.26 1015.07 1015.07 1015.29 1015.37 1015.40 1015.56 1015.66 1015.76 1015.92 1016.05 1016.09 1016.02 1016.12 1016.16 1016.25 1016.36 1016.39 1016.45 1016.52 1016.53 1016.61 1016.69 1016.70 1016.67 1016.63 1016.63 1016.63 1016.56 1016.32 1015.97 1015.82 1015.58 1015.42 1016.35 1016.72 1016.83 1016.90 1016.98 1017.13
1012.58 1013.42 1014.20 1015.22 1015.22 1015.32 1015.46 1015.58 1015.68 1015.75 1015.88 1016.06 1016.11 1016.18 1016.22 1016.24 1016.29 1016.34 1016.46 1016.58 1016.62 1016.71 1016.76 1016.80 1016.88 1016.93 1016.93 1016.88 1016.79 1016.79 1016.76 1016.59 1016.09 1015.82 1015.11 1013.88 1014.16 1015.87 1016.44 1016.78 1016.91 1017.01 1017.18
1012.06 1012.56 1014.56 1015.38 1015.50 1015.56 1015.63 1015.77 1015.90 1016.02 1016.16 1016.24 1016.30 1016.32 1016.38 1016.47 1016.54 1016.62 1016.68 1016.77 1016.83 1016.86 1016.96 1017.01 1017.06 1017.09 1017.08 1017.02 1016.94 1016.83 1016.64 1016.28 1015.82 1015.45 1014.96 1014.16 1014.06 1015.73 1016.25 1016.76 1016.97 1017.08 1017.22
1011.58 1012.46 1015.04 1015.55 1015.66 1015.77 1015.86 1015.96 1016.08 1016.22 1016.38 1016.45 1016.57 1016.63 1016.64 1016.69 1016.78 1016.92 1016.98 1017.04 1017.07 1017.13 1017.21 1017.22 1017.24 1017.23 1017.12 1016.97 1016.78 1016.58 1016.38 1016.25 1015.94 1015.10 1014.21 1014.63 1014.45 1015.39 1015.91 1016.47 1016.81 1017.04 1017.21
1012.31 1013.38 1014.88 1015.61 1015.84 1015.89 1015.98 1016.14 1016.29 1016.44 1016.58 1016.72 1016.80 1016.90 1016.94 1016.95 1017.00 1017.12 1017.20 1017.27 1017.33 1017.38 1017.40 1017.39 1017.30 1017.18 1017.05 1016.84 1016.57 1016.26 1016.24 1016.34 1015.74 1014.11 1014.43 1014.40 1014.79 1015.26 1015.60 1016.25 1016.66 1016.95 1017.10
1012.46 1013.40 1014.98 1015.79 1015.95 1016.03 1016.18 1016.30 1016.49 1016.70 1016.81 1016.89 1017.01 1017.08 1017.09 1017.16 1017.24 1017.31 1017.39 1017.42 1017.49 1017.50 1017.39 1017.30 1017.19 1017.04 1016.84 1016.58 1016.26 1016.00 1016.14 1016.08 1014.64 1015.87 1015.14 1014.35 1015.29 1015.45 1015.62 1016.10 1016.56 1016.77 1016.91
1012.62 1013.21 1014.46 1015.09 1015.85 1016.17 1016.43 1016.52 1016.74 1016.91 1017.06 1017.12 1017.19 1017.23 1017.27 1017.30 1017.36 1017.40 1017.48 1017.54 1017.49 1017.39 1017.24 1017.08 1016.91 1016.71 1016.42 1016.14 1015.83 1015.56 1015.62 1015.38 1014.95 1015.70 1015.53 1014.12 1015.34 1015.62 1015.62 1016.06 1016.38 1016.65 1016.77
1012.14 1013.22 1013.87 1014.58 1015.08 1015.47 1016.24 1016.79 1016.99 1017.05 1017.17 1017.25 1017.23 1017.14 1017.02 1016.96 1017.05 1017.24 1017.44 1017.43 1017.37 1017.19 1017.06 1016.87 1016.55 1016.09 1015.90 1015.83 1015.34 1014.75 1014.81 1014.95 1014.34 1013.51 1014.30 1014.84 1015.14 1015.40 1015.36 1015.76 1016.15 1016.40 1016.55
1012.49 1013.31 1014.21 1014.10 1015.05 1015.34 1015.94 1016.72 1017.14 1017.20 1017.25 1017.27 1017.12 1016.98 1016.97 1016.10 1016.01 1016.61 1016.99 1017.03 1016.99 1016.85 1016.59 1016.19 1015.83 1015.64 1015.45 1015.72 1015.14 1014.45 1014.23 1013.41 1012.47 1012.84 1013.62 1014.78 1014.72 1014.74 1014.98 1015.33 1015.63 1015.88 1015.96
1012.55 1012.89 1013.61 1013.84 1014.48 1015.22 1015.19 1016.52 1016.33 1016.48 1016.28 1016.19 1016.23 1016.07 1016.01 1015.78 1015.72 1015.73 1016.18 1016.53 1016.35 1016.21 1015.80 1015.47 1015.42 1015.21 1015.07 1014.71 1014.61 1014.58 1013.37 1012.50 1012.14 1012.26 1013.56 1014.14 1014.40 1014.76 1015.08 1015.32 1015.48 1015.64 1015.82
1012.33 1012.81 1013.65 1013.82 1014.45 1014.57 1014.98 1015.31 1015.32 1015.26 1015.35 1016.01 1016.28 1016.06 1015.72 1015.35 1015.70 1015.42 1015.36 1015.46 1015.40 1015.46 1015.24 1015.36 1014.98 1014.71 1014.53 1014.31 1014.22 1014.06 1013.56 1012.89 1012.48 1012.36 1013.42 1013.88 1014.43 1014.76 1014.95 1015.18 1015.34 1015.42 1015.50
1012.17 1012.66 1013.56 1014.00 1014.64 1014.38 1014.94 1014.59 1014.54 1014.55 1015.03 1015.45 1015.77 1016.21 1015.82 1015.70 1015.35 1015.19 1014.65 1014.92 1014.88 1014.78 1014.82 1014.39 1014.95 1015.30 1015.08 1014.66 1014.46 1014.35 1013.91 1013.50 1013.16 1012.98 1013.54 1013.91 1014.60 1014.94 1015.03 1015.10 1015.26 1015.40 1015.44
1012.15 1012.65 1013.37 1014.28 1014.89 1014.66 1014.80 1014.36 1014.32 1014.60 1014.63 1014.99 1015.65 1015.95 1015.16 1014.98 1015.68 1015.37 1015.10 1014.40 1014.48 1014.42 1014.58 1014.87 1015.39 1015.27 1015.27 1014.88 1014.71 1014.55 1014.30 1013.82 1013.53 1013.20 1012.89 1013.90 1014.38 1014.81 1015.06 1015.17 1015.14 1015.17 1015.24
1012.09 1012.64 1013.38 1014.29 1014.92 1015.01 1015.03 1015.04 1014.96 1014.70 1014.96 1014.80 1014.80 1015.52 1015.93 1015.40 1015.51 1015.29 1015.11 1014.71 1014.69 1014.70 1015.08 1015.09 1015.64 1015.73 1015.34 1014.88 1014.56 1014.45 1014.18 1013.79 1013.60 1013.75 1013.17 1013.76 1014.29 1014.63 1014.98 1015.22 1015.18 1015.11 1015.05
1011.92 1012.50 1013.18 1014.02 1014.62 1015.18 1015.25 1015.48 1015.29 1015.05 1014.79 1014.86 1014.83 1015.73 1015.95 1016.04 1016.14 1015.97 1015.14 1015.04 1014.74 1015.09 1015.54 1015.07 1015.52 1015.22 1014.92 1014.83 1014.64 1014.36 1014.04 1013.89 1013.75 1013.89 1013.61 1013.36 1014.42 1014.82 1014.98 1015.28 1015.59 1015.50 1015.39
1011.63 1012.32 1012.97 1013.51 1014.24 1015.01 1015.33 1015.43 1014.98 1014.63 1014.54 1014.59 1014.58 1015.00 1015.88 1016.07 1016.18 1016.00 1015.22 1014.72 1014.95 1014.94 1014.95 1014.72 1014.93 1015.31 1015.28 1015.34 1015.24 1014.81 1014.46 1014.13 1013.95 1013.59 1013.44 1013.80 1013.58 1013.47 1014.76 1014.84 1015.07 1015.32 1015.33
1011.44 1012.30 1012.90 1013.40 1013.96 1014.70 1015.09 1015.07 1015.07 1014.90 1015.04 1014.42 1014.24 1014.38 1015.51 1015.74 1015.72 1016.01 1015.03 1014.66 1015.52 1014.88 1014.62 1014.83 1014.89 1015.91 1015.68 1015.58 1015.33 1014.87 1014.87 1014.38 1013.90 1013.45 1013.74 1013.94 1013.97 1014.06 1014.12 1014.86 1015.13 1015.20 1015.23
1011.25 1012.24 1012.93 1013.41 1013.84 1014.52 1014.86 1015.08 1014.84 1014.58 1014.81 1014.54 1014.24 1014.28 1015.17 1015.35 1015.58 1015.73 1014.84 1015.24 1015.64 1015.02 1014.63 1014.84 1015.72 1015.95 1016.06 1015.48 1015.56 1014.92 1014.93 1014.82 1014.56 1014.14 1013.78 1013.38 1013.52 1014.10 1013.80 1014.19 1014.73 1014.79 1014.94
1010.86 1011.82 1012.66 1013.26 1013.73 1014.27 1014.50 1014.63 1014.43 1014.28 1014.39 1014.28 1014.06 1014.52 1014.99 1015.27 1015.42 1015.52 1015.09 1014.82 1015.24 1015.24 1015.01 1015.81 1016.06 1015.82 1015.61 1015.73 1015.75 1015.01 1014.41 1014.36 1014.38 1014.31 1013.98 1013.77 1014.11 1014.22 1014.37 1014.56 1014.57 1014.36 1014.20
1010.19 1011.21 1012.14 1012.78 1013.38 1013.97 1014.10 1014.10 1014.00 1013.94 1013.65 1013.66 1013.70 1014.20 1014.99 1015.08 1015.15 1015.22 1015.16 1015.14 1015.04 1015.08 1015.35 1015.91 1016.24 1016.16 1015.56 1016.26 1016.25 1015.31 1014.34 1013.86 1013.85 1013.68 1014.03 1014.07 1014.35 1014.36 1014.08 1013.90 1014.22 1014.54 1014.47
1009.29 1010.41 1011.35 1012.17 1012.79 1013.41 1013.41 1013.78 1013.96 1013.95 1013.88 1013.52 1013.60 1013.96 1014.34 1014.79 1014.80 1014.77 1014.82 1015.16 1015.39 1015.51 1015.19 1015.79 1016.03 1016.02 1015.74 1015.65 1015.55 1015.70 1014.99 1014.68 1014.55 1013.80 1013.27 1013.63 1013.94 1014.03 1013.51 1013.74 1013.76 1013.98 1014.19
1008.29 1009.50 1010.49 1011.51 1012.14 1012.81 1013.23 1012.98 1013.40 1013.49 1013.38 1013.33 1013.47 1013.44 1013.68 1014.08 1014.34 1014.40 1014.64 1014.98 1015.30 1015.27 1015.23 1015.49 1015.73 1015.83 1015.80 1015.55 1015.27 1014.95 1015.18 1015.16 1014.87 1014.10 1013.82 1013.46 1013.93 1014.29 1014.52 1013.75 1013.40 1013.26 1013.66
1007.47 1008.38 1009.48 1010.60 1011.49 1011.99 1012.59 1012.75 1012.76 1013.15 1012.86 1012.94 1012.89 1012.93 1013.39 1013.51 1013.75 1014.01 1014.20 1014.59 1014.98 1015.06 1015.02 1015.10 1015.37 1015.69 1015.76 1015.33 1015.49 1015.25 1015.13 1014.83 1014.28 1014.23 1013.90 1013.78 1013.87 1013.85 1013.24 1013.51 1013.17 1012.81 1012.91
1006.52 1007.42 1008.36 1009.57 1010.64 1011.48 1011.81 1012.38 1012.47 1012.39 1012.74 1012.46 1012.63 1012.62 1012.70 1012.72 1013.01 1013.54 1013.79 1014.09 1014.38 1014.50 1014.64 1014.96 1015.42 1015.66 1015.40 1015.78 1015.72 1015.66 1014.92 1014.73 1014.44 1014.65 1014.13 1013.74 1013.36 1012.74 1012.74 1012.74 1012.60 1012.53 1012.90
Wind_Speed
7 6 4 3 6 10 13 13 12 12 11 11 11 10 11 10 10 11 12 11 12 12 12 10 12 11 11 11 11 10 9 9 8 7 8 10 9 6 3 2 4 2 12
10 12 8 9 10 12 12 13 13 12 11 11 11 10 9 9 11 12 12 12 12 11 12 11 11 10 10 10 9 8 7 6 5 5 7 8 9 8 3 3 7 11 10
15 14 13 9 10 11 12 13 12 12 11 10 10 10 8 11 10 13 11 11 11 12 12 11 10 9 8 7 7 6 4 4 1 6 9 10 12 11 5 2 5 8 6
17 16 16 9 10 12 12 11 11 11 10 9 10 9 9 10 12 11 10 11 12 11 10 9 8 7 6 5 4 3 2 1 7 9 10 2 12 15 10 6 4 7 5
16 17 16 11 10 12 11 11 11 10 9 10 10 8 9 11 11 10 12 11 10 9 8 7 6 5 4 4 3 3 3 5 10 12 11 5 2 13 11 8 7 7 4
16 21 15 11 10 10 10 11 11 10 8 9 9 9 10 10 10 10 9 9 8 7 6 5 4 3 3 3 3 5 6 9 14 13 6 6 7 16 12 7 3 5 4
12 19 15 11 10 9 8 12 11 9 7 10 9 9 9 10 10 9 8 7 6 5 4 3 4 5 5 5 5 6 7 10 12 10 3 11 10 12 12 7 5 4 3
14 17 15 13 11 10 10 11 10 9 8 9 9 8 8 8 8 6 5 4 3 2 2 2 3 4 5 5 6 8 8 10 14 9 17 10 9 10 9 7 5 5 5
18 16 14 14 12 12 10 10 9 10 9 9 8 8 7 7 6 5 4 3 2 1 1 2 3 4 6 7 8 9 10 12 9 13 15 5 11 8 7 7 5 5 5
13 14 12 14 13 12 11 10 8 8 11 8 8 7 9 10 10 9 7 5 1 1 2 3 5 9 10 10 11 12 13 13 15 10 9 8 13 8 6 5 5 6 6
11 13 8 12 9 9 11 10 9 8 9 9 8 8 9 7 12 15 9 6 5 5 7 9 11 11 13 10 16 16 13 8 6 4 9 12 11 7 5 6 7 7 6
13 12 14 12 13 10 10 11 10 10 11 10 7 9 9 3 6 5 8 10 11 11 13 14 13 14 14 8 9 14 6 9 5 5 8 12 9 4 3 5 6 8 7
14 11 12 11 10 11 12 9 7 8 5 5 4 4 7 3 4 9 7 8 8 14 7 11 6 4 10 8 7 7 8 8 6 6 10 13 7 3 5 6 7 8 10
14 14 13 12 10 9 8 8 7 6 6 5 7 2 5 3 2 4 2 3 4 6 4 8 6 6 7 4 6 9 10 8 5 5 9 12 7 1 4 6 6 6 8
14 13 13 13 10 7 7 5 5 7 6 10 7 4 4 4 3 2 3 2 4 1 4 5 4 3 4 7 7 7 8 9 8 6 1 12 9 4 1 5 6 7 8
14 14 14 13 11 9 8 6 3 4 6 5 5 9 1 4 2 4 4 1 3 5 6 4 3 5 5 5 5 7 7 7 7 8 7 7 9 8 5 4 5 6 7
14 15 15 14 14 11 8 7 7 5 8 5 3 5 4 3 4 7 3 5 3 2 6 3 2 1 4 6 6 4 7 5 5 6 8 7 9 8 10 10 10 9 9
15 15 15 13 15 13 10 9 7 6 5 5 5 9 6 4 3 5 5 3 6 5 2 4 2 4 5 5 6 7 6 8 3 3 3 4 6 4 8 10 8 5 6
15 14 14 14 15 14 11 8 8 5 6 4 5 5 9 6 5 6 6 2 1 7 3 5 4 4 7 6 7 7 10 8 5 5 2 3 3 5 4 8 6 6 6
16 15 14 12 11 12 9 8 8 7 7 7 4 4 9 6 5 5 7 2 3 7 7 5 5 7 7 6 8 10 6 7 8 6 5 5 2 3 4 5 3 5 7
17 16 15 14 11 10 10 10 9 9 8 7 6 4 6 6 6 6 8 5 7 7 4 4 4 8 7 7 8 9 3 3 4 6 5 5 5 4 4 1 4 3 3
19 18 16 15 13 12 10 8 8 8 8 9 7 8 8 8 8 8 8 7 6 7 3 3 5 7 8 6 6 8 8 6 12 11 5 4 3 6 6 6 4 4 4
21 20 17 16 15 14 13 10 7 6 6 6 6 6 9 10 10 10 9 7 7 5 8 6 5 6 7 3 4 2 6 8 12 10 3 4 2 7 6 6 6 5 4
22 21 18 18 16 15 14 12 13 10 10 9 7 9 8 11 12 12 10 9 7 8 6 6 5 6 2 5 3 1 3 4 5 8 8 3 4 3 4 6 6 6 5
22 21 20 18 17 15 15 14 12 13 10 9 8 7 7 6 10 12 11 9 8 8 7 7 7 7 4 5 2 1 6 9 8 8 10 8 2 4 4 5 5 4 6
21 21 20 19 17 18 16 17 15 13 13 10 10 8 9 9 11 12 11 8 8 8 9 7 7 8 9 5 4 5 7 8 6 8 11 12 11 6 5 6 5 4 2
Wind_Direction
201 193 236 145 130 131 133 132 130 123 116 110 106 110 105 104 106 92 95 93 93 100 95 95 87 78 87 88 87 83 87 90 95 108 127 126 116 99 87 14 343 57 103
161 185 176 158 130 119 127 127 122 116 114 110 109 108 104 109 107 101 100 95 92 88 95 92 87 84 85 87 90 93 91 92 97 166 166 156 138 125 107 36 34 95 101
174 137 159 150 125 114 111 113 118 118 116 111 106 108 114 105 108 104 100 98 100 98 95 93 94 95 92 89 85 87 94 92 190 249 231 199 141 147 148 83 70 95 104
158 155 136 139 126 123 119 118 117 116 110 118 113 109 107 104 99 97 104 91 94 98 99 96 95 92 89 84 71 62 51 325 258 257 260 319 125 148 156 157 149 135 138
150 143 116 136 131 124 123 121 117 111 110 107 110 124 104 101 102 101 97 104 101 96 90 89 88 87 72 52 12 342 311 279 270 269 257 44 42 132 143 164 175 170 141
160 114 126 139 133 131 132 134 124 116 121 121 111 90 102 111 106 102 101 99 96 86 84 75 64 42 24 2 327 321 308 297 291 257 283 155 23 132 139 155 147 129 140
103 118 137 142 140 133 139 122 117 120 110 126 113 108 99 91 101 103 104 99 92 84 71 44 8 355 347 333 323 308 301 300 291 327 16 66 113 130 133 147 160 167 178
150 135 136 138 139 139 122 113 116 121 122 113 111 113 109 106 108 110 104 96 84 67 29 357 338 332 315 302 293 288 290 287 290 52 320 108 86 101 135 153 173 198 211
140 121 137 137 138 132 130 126 131 130 126 126 126 127 124 123 126 131 125 109 86 91 276 298 289 279 266 264 268 269 265 261 280 115 246 71 96 104 141 167 181 215 223
122 138 144 141 162 161 148 141 150 129 140 140 145 158 161 161 170 167 171 137 136 253 239 229 228 234 246 257 248 242 252 266 244 196 199 94 101 111 143 186 179 226 241
134 133 152 145 150 136 131 142 152 143 150 157 171 199 195 208 175 148 114 151 183 198 202 211 226 239 241 250 250 249 254 270 12 65 106 125 111 119 162 196 201 216 234
157 161 158 159 147 162 153 155 158 156 174 182 169 212 194 62 26 86 144 183 202 207 219 217 223 248 253 221 230 245 268 337 349 344 87 97 99 128 203 222 227 228 238
172 158 159 153 156 176 124 183 168 182 130 128 150 277 44 174 193 186 155 182 202 203 214 249 238 259 39 11 25 12 339 336 353 350 99 98 102 159 208 213 222 234 242
171 158 170 146 166 182 162 198 167 150 163 169 142 198 159 202 195 329 56 126 242 89 330 33 61 13 360 26 5 357 357 355 354 326 113 111 109 172 216 224 237 251 251
171 155 161 153 172 163 195 171 195 127 203 119 164 164 285 100 135 13 352 3 41 69 96 60 19 49 338 349 354 360 349 1 353 354 29 129 121 113 258 262 258 261 262
173 164 158 164 170 170 213 137 160 222 97 201 165 132 298 297 307 146 212 158 101 43 12 348 34 332 304 331 359 7 336 356 17 344 339 125 122 118 95 14 324 295 282
175 171 164 172 169 176 202 180 212 168 168 190 175 124 237 252 156 315 108 281 61 63 243 237 287 254 321 332 334 317 311 340 7 353 312 349 132 114 99 71 40 34 37
176 178 173 182 170 178 191 188 209 175 206 196 189 159 182 197 241 238 219 230 66 271 282 287 121 329 319 309 323 315 320 316 21 198 27 338 359 90 124 123 113 94 71
180 181 184 186 174 179 183 197 220 169 249 227 212 181 152 207 203 267 267 149 189 297 277 286 59 314 313 315 309 328 329 314 297 335 292 316 68 350 355 138 142 130 106
182 181 189 186 182 181 183 215 203 203 213 235 205 223 141 215 210 232 252 272 268 269 273 11 349 323 316 314 323 314 329 301 310 316 298 301 107 317 327 28 349 166 149
183 183 188 191 182 185 198 199 213 210 200 217 225 183 161 244 200 226 267 211 223 261 300 337 304 284 322 28 314 347 24 250 296 325 317 313 359 320 321 311 265 348 165
184 186 187 191 185 197 200 210 211 219 210 205 209 171 209 219 226 234 249 283 282 302 192 220 277 315 320 59 356 316 344 340 359 320 347 336 263 287 281 263 351 292 286
188 188 188 194 190 196 215 201 211 242 255 240 233 210 198 223 237 237 253 259 300 295 284 179 237 279 308 52 125 19 341 338 332 348 263 239 256 267 285 308 283 250 287
194 189 191 190 197 196 208 203 207 208 219 215 224 214 216 205 229 237 241 248 246 268 304 183 245 262 242 266 289 14 202 260 303 316 324 358 220 282 248 271 284 265 254
197 196 194 191 195 204 196 229 197 221 214 227 229 213 199 232 222 238 240 233 240 246 259 220 213 240 237 243 192 311 315 294 303 311 310 298 171 205 269 229 238 294 269
200 199 196 189 195 199 198 203 230 210 224 237 215 234 227 220 217 218 240 232 231 240 244 206 212 229 251 260 255 296 298 298 318 316 316 309 312 338 273 240 260 69 309